Weather History for KSLB - February, 2014

Change the Weather History Date:

Wednesday, February 19, 2014

  Actual Average (KDNS) Record (KDNS)
Temperature  
Mean Temperature 38 °F -  
Max Temperature 53 °F 35 °F - (-1)
Min Temperature 24 °F 21 °F - (-1)
Degree Days  
Heating Degree Days 26    
Moisture  
Dew Point 27 °F    
Average Humidity 73    
Maximum Humidity 100    
Minimum Humidity 26    
Precipitation  
Precipitation 0.00 in - - ()
Sea Level Pressure  
Sea Level Pressure 29.79 in    
Wind  
Wind Speed 12 mph (SSW)    
Max Wind Speed 24 mph    
Max Gust Speed 32 mph    
Visibility 10 miles    
Events      
Averages and records for this station are not official NWS values.
T = Trace of Precipitation, MM = Missing Value Source: NWS Daily Summary

Daily Weather History Graph

Daily Weather History Graph

Search for Another Location

Airport or City:

Trip Planner

Search our weather history database for the weather conditions in past years. The results will help you decide how hot, cold, wet, or windy it might be!

Date:

Astronomy

Feb. 19, 2014 Rise Set
Actual Time 7:12 AM CST 5:58 PM CST
Civil Twilight 6:43 AM CST 6:26 PM CST
Nautical Twilight 6:10 AM CST 6:59 PM CST
Astronomical Twilight 5:37 AM CST 7:32 PM CST
Moon 10:59 PM CST (2/19) 9:11 AM CST (2/19)
Length of Visible Light 11h 43m
Length of Day
10h 46m
Waning Gibbous, 79% of the Moon is Illuminated
Feb 19
Waning Gibbous
Feb 22
Last Quarter
Mar 1
New
Mar 8
First Quarter
Mar 16
Full

Hourly Weather History & Observations

Time (CST) Temp. Windchill Dew Point Humidity Pressure Visibility Wind Dir Wind Speed Gust Speed Precip Events Conditions
12:15 AM 30.2 °F 21.9 °F 30.2 °F 100% 29.87 in 10.0 mi West 9.2 mph - N/A   Clear
12:35 AM 30.2 °F 21.9 °F 30.2 °F 100% 29.87 in 10.0 mi West 9.2 mph - N/A   Clear
12:55 AM 30.2 °F 21.3 °F 30.2 °F 100% 29.88 in 10.0 mi West 10.4 mph - N/A   Clear
1:15 AM - - - N/A% 29.87 in 10.0 mi West 11.5 mph - N/A   Clear
1:35 AM 30.2 °F 20.8 °F 30.2 °F 100% 29.87 in 10.0 mi West 11.5 mph - N/A   Clear
1:55 AM 30.2 °F 20.8 °F 30.2 °F 100% 29.87 in 10.0 mi West 11.5 mph - N/A   Clear
2:15 AM 30.2 °F 20.8 °F 30.2 °F 100% 29.87 in 10.0 mi West 11.5 mph - N/A   Clear
2:35 AM 30.2 °F 20.8 °F 30.2 °F 100% 29.88 in 10.0 mi West 11.5 mph - N/A   Clear
2:55 AM - - - N/A% 29.88 in 10.0 mi West 10.4 mph - N/A   Clear
3:15 AM 28.4 °F 18.0 °F 28.4 °F 100% 29.87 in 10.0 mi West 12.7 mph - N/A   Clear
3:35 AM 28.4 °F 19.1 °F 28.4 °F 100% 29.87 in 10.0 mi West 10.4 mph - N/A   Clear
3:55 AM 28.4 °F 19.1 °F 28.4 °F 100% 29.87 in 10.0 mi West 10.4 mph - N/A   Clear
4:15 AM 28.4 °F 19.1 °F 28.4 °F 100% 29.86 in 10.0 mi West 10.4 mph - N/A   Clear
4:35 AM 26.6 °F 17.5 °F 26.6 °F 100% 29.87 in 10.0 mi WSW 9.2 mph - N/A   Clear
4:55 AM 26.6 °F 17.5 °F 26.6 °F 100% 29.88 in 10.0 mi WSW 9.2 mph - N/A   Clear
5:15 AM 26.6 °F 17.5 °F 26.6 °F 100% 29.88 in 10.0 mi WSW 9.2 mph - N/A   Clear
5:35 AM 24.8 °F 16.1 °F 24.8 °F 100% 29.88 in 10.0 mi SW 8.1 mph - N/A   Clear
5:55 AM 24.8 °F 16.1 °F 24.8 °F 100% 29.88 in 10.0 mi WSW 8.1 mph - N/A   Clear
6:15 AM 26.6 °F 16.8 °F 24.8 °F 93% 29.88 in 10.0 mi WSW 10.4 mph - N/A   Clear
6:35 AM 26.6 °F 16.8 °F 24.8 °F 93% 29.88 in 10.0 mi WSW 10.4 mph - N/A   Clear
6:55 AM 24.8 °F 16.1 °F 23.0 °F 93% 29.88 in 10.0 mi WSW 8.1 mph - N/A   Clear
7:15 AM 26.6 °F 16.8 °F 24.8 °F 93% 29.87 in 10.0 mi West 10.4 mph - N/A   Clear
7:35 AM 26.6 °F 16.8 °F 24.8 °F 93% 29.87 in 10.0 mi West 10.4 mph - N/A   Clear
7:55 AM 28.4 °F 19.1 °F 26.6 °F 93% 29.87 in 10.0 mi West 10.4 mph - N/A   Clear
8:15 AM 28.4 °F 19.1 °F 26.6 °F 93% 29.88 in 10.0 mi WSW 10.4 mph - N/A   Clear
8:35 AM 30.2 °F 21.9 °F 28.4 °F 93% 29.88 in 10.0 mi WSW 9.2 mph - N/A   Clear
8:55 AM 32.0 °F 23.6 °F 30.2 °F 93% 29.88 in 10.0 mi WSW 10.4 mph - N/A   Clear
9:15 AM 33.8 °F 25.8 °F 30.2 °F 87% 29.88 in 10.0 mi WSW 10.4 mph - N/A   Clear
9:35 AM 33.8 °F 24.3 °F 30.2 °F 87% 29.89 in 10.0 mi SW 13.8 mph - N/A   Clear
9:55 AM 35.6 °F 28.0 °F 30.2 °F 81% 29.89 in 10.0 mi WSW 10.4 mph - N/A   Clear
10:15 AM 37.4 °F 30.8 °F 30.2 °F 75% 29.88 in 10.0 mi WSW 9.2 mph - N/A   Clear
10:35 AM 39.2 °F 33.0 °F 30.2 °F 70% 29.88 in 10.0 mi WSW 9.2 mph - N/A   Clear
10:55 AM 41.0 °F 35.2 °F 30.2 °F 65% 29.87 in 10.0 mi SW 9.2 mph - N/A   Clear
11:15 AM 44.6 °F 39.2 °F 28.4 °F 53% 29.87 in 10.0 mi SW 10.4 mph - N/A   Clear
11:35 AM 46.4 °F 39.8 °F 28.4 °F 50% 29.86 in 10.0 mi SW 16.1 mph - N/A   Clear
11:55 AM 46.4 °F 39.0 °F 28.4 °F 50% 29.85 in 10.0 mi SW 19.6 mph - N/A   Clear
12:15 PM 48.2 °F - 30.2 °F 50% 29.84 in 10.0 mi SSW 17.3 mph - N/A   Clear
12:35 PM 48.2 °F - 28.4 °F 46% 29.82 in 10.0 mi SSW 17.3 mph 26.5 mph N/A   Clear
12:55 PM 50.0 °F - 26.6 °F 40% 29.80 in 10.0 mi SSW 19.6 mph - N/A   Clear
1:15 PM 50.0 °F - 24.8 °F 37% 29.79 in 10.0 mi SW 15.0 mph 21.9 mph N/A   Clear
1:35 PM 51.8 °F - 23.0 °F 33% 29.78 in 10.0 mi SSW 16.1 mph 25.3 mph N/A   Clear
1:55 PM 53.6 °F - 19.4 °F 26% 29.77 in 10.0 mi SW 18.4 mph - N/A   Clear
2:15 PM 53.6 °F - 23.0 °F 30% 29.76 in 10.0 mi SSW 17.3 mph - N/A   Clear
2:35 PM 53.6 °F - 24.8 °F 33% 29.75 in 10.0 mi South 20.7 mph 27.6 mph N/A   Clear
2:55 PM 53.6 °F - 23.0 °F 30% 29.74 in 10.0 mi SSW 19.6 mph 27.6 mph N/A   Clear
3:15 PM 51.8 °F - 23.0 °F 33% 29.73 in 10.0 mi South 24.2 mph 32.2 mph N/A   Clear
3:35 PM 51.8 °F - 23.0 °F 33% 29.73 in 10.0 mi South 24.2 mph 31.1 mph N/A   Clear
3:55 PM 50.0 °F - 23.0 °F 35% 29.72 in 10.0 mi South 24.2 mph - N/A   Clear
4:15 PM 48.2 °F - 23.0 °F 37% 29.72 in 10.0 mi South 19.6 mph 26.5 mph N/A   Clear
4:35 PM 46.4 °F 39.2 °F 23.0 °F 40% 29.71 in 10.0 mi South 18.4 mph 26.5 mph N/A   Clear
4:55 PM 46.4 °F 39.2 °F 23.0 °F 40% 29.70 in 10.0 mi South 18.4 mph 25.3 mph N/A   Clear
5:15 PM 44.6 °F 37.8 °F 24.8 °F 46% 29.70 in 10.0 mi South 15.0 mph - N/A   Clear
5:40 PM 42.8 °F 35.1 °F 26.6 °F 53% 29.69 in 10.0 mi SSE 16.1 mph - N/A   Clear
5:55 PM 41.0 °F 33.5 °F 24.8 °F 53% 29.68 in 10.0 mi SSE 13.8 mph 21.9 mph N/A   Clear
6:15 PM 41.0 °F 33.1 °F 26.6 °F 57% 29.68 in 10.0 mi SSE 15.0 mph - N/A   Clear
6:35 PM 39.2 °F 31.2 °F 28.4 °F 65% 29.68 in 10.0 mi SSE 13.8 mph - N/A   Clear
6:55 PM 39.2 °F 30.8 °F 28.4 °F 65% 29.67 in 10.0 mi SSE 15.0 mph 23.0 mph N/A   Clear
7:15 PM 39.2 °F 29.6 °F 30.2 °F 70% 29.67 in 10.0 mi SSE 19.6 mph - N/A   Clear
7:35 PM 39.2 °F 29.6 °F 30.2 °F 70% 29.66 in 10.0 mi SSE 19.6 mph - N/A   Clear
7:55 PM 39.2 °F 30.8 °F 30.2 °F 70% 29.66 in 10.0 mi SSE 15.0 mph 21.9 mph N/A   Clear
8:20 PM 37.4 °F 28.5 °F 30.2 °F 75% 29.66 in 10.0 mi SSE 15.0 mph - N/A   Clear
8:35 PM 37.4 °F 28.9 °F 30.2 °F 75% 29.66 in 10.0 mi SSE 13.8 mph 23.0 mph N/A   Scattered Clouds
8:55 PM 35.6 °F 28.6 °F 28.4 °F 75% 29.66 in 10.0 mi SSE 9.2 mph - N/A   Mostly Cloudy
9:15 PM 35.6 °F 29.9 °F 30.2 °F 81% 29.67 in 10.0 mi SE 6.9 mph - N/A   Scattered Clouds
9:35 PM 33.8 °F 25.3 °F 30.2 °F 87% 29.66 in 10.0 mi SSE 11.5 mph - N/A   Scattered Clouds
9:55 PM 35.6 °F 26.2 °F 28.4 °F 75% 29.66 in 10.0 mi SSE 15.0 mph - N/A   Mostly Cloudy
10:15 PM 35.6 °F 25.9 °F 28.4 °F 75% 29.64 in 10.0 mi SSE 16.1 mph - N/A   Mostly Cloudy
10:35 PM 35.6 °F 26.6 °F 28.4 °F 75% 29.64 in 10.0 mi SSE 13.8 mph 21.9 mph N/A   Partly Cloudy
10:55 PM 35.6 °F 29.2 °F 28.4 °F 75% 29.63 in 10.0 mi SSE 8.1 mph - N/A   Clear
11:15 PM 35.6 °F 28.0 °F 28.4 °F 75% 29.62 in 10.0 mi SE 10.4 mph - N/A   Clear
11:35 PM 35.6 °F 29.2 °F 28.4 °F 75% 29.61 in 10.0 mi SE 8.1 mph 17.3 mph N/A   Clear
11:55 PM 33.8 °F 27.0 °F 30.2 °F 87% 29.61 in 10.0 mi SE 8.1 mph - N/A   Clear